When you browse on this site, cookies collect data to enhance your experience and personalize the content and advertising you see.
Visit our Privacy Policy to learn more. By continuing to use the site, you agree to this use of cookies and data.
  • In Österreich
  • Länderverzeichnis
  • Für 7 Tage
  • Wassertemperatur
  • Satellitenkarten
  • Wetterkarte
  • News
  • Widgets
  • user-avatar
    Anmelden

    Stündliche Wetter Rechane

    Heute, 18 Februar, Montag

    Zeit Temperatur Niederschläge Wind Luftdruck Luftfeuchtigkeit
    00:00 -5°C° 0 mm 4 m/S 745 mmHg 81%
    01:00 -7°C° 0 mm 4 m/S 745 mmHg 82%
    02:00 -6°C° 0 mm 3 m/S 746 mmHg 83%
    03:00 -7°C° 0 mm 3 m/S 747 mmHg 84%
    04:00 -7°C° 0 mm 3 m/S 747 mmHg 86%
    05:00 -8°C° 0 mm 3 m/S 748 mmHg 87%
    06:00 -8°C° 0 mm 3 m/S 748 mmHg 88%
    07:00 -8°C° 0 mm 3 m/S 749 mmHg 88%
    08:00 -7°C° 0 mm 2 m/S 749 mmHg 89%
    09:00 -6°C° 0 mm 2 m/S 750 mmHg 86%
    10:00 -5°C° 0 mm 2 m/S 750 mmHg 83%
    11:00 -4°C° 0 mm 2 m/S 751 mmHg 80%
    12:00 -4°C° 0 mm 2 m/S 751 mmHg 78%
    13:00 -3°C° 0 mm 2 m/S 751 mmHg 76%
    14:00 -3°C° 0 mm 2 m/S 751 mmHg 73%
    15:00 -2°C° 0 mm 1 m/S 751 mmHg 77%
    16:00 -3°C° 0 mm 1 m/S 751 mmHg 80%
    17:00 -4°C° 0 mm 1 m/S 751 mmHg 83%
    18:00 -4°C° 0 mm 1 m/S 751 mmHg 84%
    19:00 -4°C° 0 mm 1 m/S 751 mmHg 84%
    20:00 -6°C° 0 mm 1 m/S 751 mmHg 85%
    21:00 -4°C° 0 mm 1 m/S 750 mmHg 85%
    22:00 -6°C° 0 mm 2 m/S 750 mmHg 85%
    23:00 -6°C° 0 mm 2 m/S 750 mmHg 85%

    Morgen, 19 Februar, Dienstag

    Zeit Temperatur Niederschläge Wind Luftdruck Luftfeuchtigkeit
    00:00 -7°C° 0 mm 3 m/S 750 mmHg 84%
    01:00 -7°C° 0 mm 3 m/S 749 mmHg 82%
    02:00 -7°C° 0 mm 3 m/S 749 mmHg 81%
    03:00 -8°C° 0 mm 4 m/S 748 mmHg 79%
    04:00 -7°C° 0 mm 4 m/S 748 mmHg 78%
    05:00 -7°C° 0 mm 4 m/S 747 mmHg 76%
    06:00 -7°C° 0 mm 4 m/S 747 mmHg 77%
    07:00 -7°C° 0 mm 4 m/S 746 mmHg 78%
    08:00 -5°C° 0 mm 4 m/S 746 mmHg 78%
    09:00 -5°C° 0 mm 5 m/S 745 mmHg 77%
    10:00 -4°C° 0 mm 5 m/S 745 mmHg 76%
    11:00 -2°C° 0 mm 5 m/S 745 mmHg 76%
    12:00 -1°C° 0 mm 5 m/S 744 mmHg 76%
    13:00 -1°C° 0 mm 5 m/S 743 mmHg 76%
    14:00 0°C° 0 mm 5 m/S 743 mmHg 76%
    15:00 -1°C° 0 mm 5 m/S 742 mmHg 78%
    16:00 -1°C° 0 mm 5 m/S 741 mmHg 80%
    17:00 -2°C° 0 mm 5 m/S 741 mmHg 82%
    18:00 -2°C° 0 mm 5 m/S 740 mmHg 84%
    19:00 -2°C° 0 mm 5 m/S 740 mmHg 85%
    20:00 -2°C° 0 mm 5 m/S 739 mmHg 87%
    21:00 -2°C° 0 mm 5 m/S 739 mmHg 88%
    22:00 -2°C° 0 mm 5 m/S 738 mmHg 89%
    23:00 -1°C° 0 mm 5 m/S 738 mmHg 90%

    übermorgen, 20 Februar, Mittwoch

    Zeit Temperatur Niederschläge Wind Luftdruck Luftfeuchtigkeit
    00:00 -1°C° 0 mm 5 m/S 737 mmHg 91%
    01:00 -1°C° 0 mm 5 m/S 736 mmHg 91%
    02:00 0°C° 0 mm 5 m/S 736 mmHg 92%
    03:00 0°C° 0.2 mm 5 m/S 735 mmHg 92%
    04:00 0°C° 0.2 mm 5 m/S 735 mmHg 92%
    05:00 -1°C° 0.2 mm 5 m/S 734 mmHg 92%
    06:00 0°C° 0.3 mm 5 m/S 734 mmHg 92%
    07:00 0°C° 0.3 mm 4 m/S 734 mmHg 93%
    08:00 0°C° 0.3 mm 4 m/S 734 mmHg 93%
    09:00 0°C° 0.1 mm 4 m/S 734 mmHg 91%
    10:00 0°C° 0.1 mm 4 m/S 734 mmHg 90%
    11:00 0°C° 0.1 mm 4 m/S 734 mmHg 88%
    12:00 0°C° 0.1 mm 5 m/S 734 mmHg 88%
    13:00 0°C° 0.1 mm 5 m/S 734 mmHg 87%
    14:00 +1°C° 0.1 mm 5 m/S 734 mmHg 87%
    15:00 0°C° 0.3 mm 5 m/S 733 mmHg 87%
    16:00 0°C° 0.3 mm 5 m/S 733 mmHg 86%
    17:00 0°C° 0.3 mm 5 m/S 733 mmHg 86%
    18:00 -1°C° 0.2 mm 5 m/S 733 mmHg 83%
    19:00 -1°C° 0.2 mm 5 m/S 733 mmHg 80%
    20:00 -2°C° 0.2 mm 5 m/S 733 mmHg 78%
    21:00 -4°C° 0.1 mm 5 m/S 733 mmHg 78%
    22:00 -4°C° 0.1 mm 5 m/S 734 mmHg 79%
    23:00 -5°C° 0.1 mm 5 m/S 734 mmHg 80%

    21 Februar, Donnerstag

    Zeit Temperatur Niederschläge Wind Luftdruck Luftfeuchtigkeit
    00:00 -5°C° 0.2 mm 5 m/S 734 mmHg 80%
    01:00 -5°C° 0.2 mm 6 m/S 734 mmHg 81%
    02:00 -5°C° 0.2 mm 6 m/S 734 mmHg 81%
    03:00 -6°C° 0.3 mm 6 m/S 735 mmHg 82%
    04:00 -6°C° 0.3 mm 6 m/S 735 mmHg 83%
    05:00 -6°C° 0.3 mm 6 m/S 735 mmHg 84%
    06:00 -6°C° 0.2 mm 6 m/S 735 mmHg 81%
    07:00 -7°C° 0.2 mm 7 m/S 736 mmHg 78%
    08:00 -8°C° 0.2 mm 7 m/S 736 mmHg 75%
    09:00 -8°C° 0.1 mm 7 m/S 737 mmHg 75%
    10:00 -8°C° 0.1 mm 7 m/S 738 mmHg 75%
    11:00 -8°C° 0.1 mm 7 m/S 739 mmHg 75%
    12:00 -8°C° 0.1 mm 7 m/S 740 mmHg 75%
    13:00 -8°C° 0.1 mm 7 m/S 741 mmHg 74%
    14:00 -8°C° 0.1 mm 7 m/S 742 mmHg 74%
    15:00 -8°C° 0.1 mm 7 m/S 742 mmHg 74%
    16:00 -9°C° 0.1 mm 6 m/S 743 mmHg 75%
    17:00 -9°C° 0.1 mm 6 m/S 744 mmHg 76%
    18:00 -10°C° 0.1 mm 6 m/S 745 mmHg 76%
    19:00 -10°C° 0.1 mm 6 m/S 746 mmHg 75%
    20:00 -11°C° 0.1 mm 6 m/S 747 mmHg 75%
    21:00 -11°C° 0 mm 5 m/S 747 mmHg 75%
    22:00 -11°C° 0 mm 5 m/S 748 mmHg 75%
    23:00 -12°C° 0 mm 5 m/S 748 mmHg 76%

    22 Februar, Freitag

    Zeit Temperatur Niederschläge Wind Luftdruck Luftfeuchtigkeit
    00:00 -12°C° 0 mm 5 m/S 749 mmHg 76%
    01:00 -12°C° 0 mm 5 m/S 750 mmHg 77%
    02:00 -13°C° 0 mm 5 m/S 750 mmHg 77%
    03:00 -13°C° 0 mm 5 m/S 751 mmHg 77%
    04:00 -13°C° 0 mm 5 m/S 752 mmHg 78%
    05:00 -14°C° 0 mm 5 m/S 752 mmHg 78%
    06:00 -14°C° 0 mm 5 m/S 753 mmHg 76%
    07:00 -14°C° 0 mm 5 m/S 754 mmHg 75%
    08:00 -14°C° 0 mm 4 m/S 755 mmHg 73%
    09:00 -12°C° 0 mm 4 m/S 756 mmHg 70%
    10:00 -10°C° 0 mm 4 m/S 757 mmHg 66%
    11:00 -9°C° 0 mm 4 m/S 757 mmHg 63%
    12:00 -8°C° 0 mm 4 m/S 758 mmHg 63%
    13:00 -8°C° 0 mm 4 m/S 758 mmHg 63%
    14:00 -7°C° 0 mm 4 m/S 758 mmHg 62%
    15:00 -8°C° 0 mm 4 m/S 758 mmHg 66%
    16:00 -8°C° 0 mm 3 m/S 759 mmHg 70%
    17:00 -8°C° 0 mm 3 m/S 759 mmHg 73%
    18:00 -9°C° 0 mm 3 m/S 759 mmHg 76%
    19:00 -9°C° 0 mm 3 m/S 760 mmHg 79%
    20:00 -9°C° 0 mm 2 m/S 760 mmHg 81%
    21:00 -9°C° 0 mm 2 m/S 760 mmHg 82%
    22:00 -9°C° 0 mm 2 m/S 760 mmHg 84%
    23:00 -9°C° 0 mm 2 m/S 760 mmHg 85%

    23 Februar, Samstag

    Zeit Temperatur Niederschläge Wind Luftdruck Luftfeuchtigkeit
    00:00 -10°C° 0 mm 2 m/S 760 mmHg 85%
    01:00 -10°C° 0 mm 2 m/S 759 mmHg 84%
    02:00 -10°C° 0 mm 2 m/S 759 mmHg 84%
    03:00 -9°C° 0 mm 2 m/S 758 mmHg 82%
    04:00 -9°C° 0 mm 2 m/S 758 mmHg 79%
    05:00 -8°C° 0 mm 2 m/S 757 mmHg 77%
    06:00 -8°C° 0.2 mm 2 m/S 757 mmHg 81%
    07:00 -9°C° 0.2 mm 3 m/S 756 mmHg 85%
    08:00 -9°C° 0.2 mm 3 m/S 755 mmHg 89%
    09:00 -8°C° 0.9 mm 3 m/S 755 mmHg 91%
    10:00 -8°C° 0.9 mm 3 m/S 754 mmHg 92%
    11:00 -7°C° 0.9 mm 3 m/S 754 mmHg 94%
    12:00 -7°C° 0.4 mm 3 m/S 753 mmHg 93%
    13:00 -6°C° 0.4 mm 3 m/S 752 mmHg 93%
    14:00 -6°C° 0.4 mm 3 m/S 752 mmHg 92%
    15:00 -5°C° 0.2 mm 3 m/S 752 mmHg 93%
    16:00 -5°C° 0.2 mm 3 m/S 751 mmHg 94%
    17:00 -3°C° 0.2 mm 2 m/S 751 mmHg 94%
    18:00 -3°C° 0.1 mm 2 m/S 751 mmHg 95%
    19:00 -2°C° 0.1 mm 2 m/S 751 mmHg 96%
    20:00 -2°C° 0.1 mm 2 m/S 752 mmHg 96%
    21:00 -2°C° 0.1 mm 2 m/S 752 mmHg 97%
    22:00 -1°C° 0.1 mm 2 m/S 752 mmHg 97%
    23:00 -1°C° 0.1 mm 2 m/S 752 mmHg 97%
    Mehr zeigen